COSMOS 2251 DEB, 34056

Orbit data source: Space-Track

COSMOS 2251 DEB, 34056 is space debris in LEO originally from a launch on Wed, 16 Jun 1993 UTC launched from the Plesetsk Missile And Space Complex (PKMTR). The debris from Iridium 33, an American commercial communications satellite, has been tracked extensively since its accidental collision with the defunct Russian satellite Cosmos 2251 in 2009. This event, occurring at high speed in low Earth orbit (LEO), generated thousands of pieces of space debris, significantly increasing the risk of further collisions. The Iridium 33 debris cloud has impacted space traffic management and orbital debris mitigation strategies, making it a subject of ongoing study in space situational awareness.

Loading next visibility...
Identifier
34056, 1993-036JT
Orbit
LEO
Country
Flag of CISCIS
Related business
Manufacturer
Unknown
Mission
Spacecraft
Bus & Motor
Unknown
Mass
Unknown
Launch date (UTC)
1993-06-16 (33 years ago)
Launch vehicle
Unknown
Launch site
Plesetsk Missile And Space Complex (PKMTR)
Object type
Payload
Rocket body
Debris
Shape & HBR
Unknown shape, 0.1 m
Radar Cross Section
Medium (>0.1 m² and <1 m²)

Expand to show TLE details & history
Last TLE update: 22 hours ago

TLE from 22 hours ago
0 COSMOS 2251 DEB
1 34056U 93036JT  26207.52667845  .00001574  00000-0  66908-3 0  9998
2 34056  74.0565  32.1062 0125889  26.5115   4.4178 14.21882993896198
Epoch: 2026-07-26T12:38Z
TLE epoch observation values (Epoch: 2026-07-26T12:38:25.018Z)
Latitude
29.78277°
Longitude
-92.36253°
Altitude
732.044 km
Speed
7.539 km/s
True Right ascension
02h 45m 51s
True Declination
29° 38' 03"
Sunlit
Object was in daylight at epoch
Visualization orbit readout
Latitude
Unknown
Longitude
Unknown
Altitude
Unknown
Speed
Unknown
Apparent Right ascension
Unknown
Apparent Declination
Unknown
Sunlit
N/A
Visualization observer readout
Local Sidereal Time
00:02:13
Azimuth
Unknown
Elevation
Unknown
Doppler factor
Unknown
Orbital elements
Apogee altitude
907.203 km
Perigee altitude
726.055 km
Semi-major axis
7,194.766 km
Eccentricity
0.01259
Inclination
74.0565°
RAAN
32.1062°
Arg. of periapsis
26.5115°
True anomaly
4.53069°
Mean anomaly
4.4178°
Eccentric anomaly
4.47407°
Mean motion
3.55646 °/min
Orbital period
101.22 mins
BSTAR
0.00066908
Loading maneuver chart data...
Computing Atmospheric mass density...

Documentation

Showing up to 5 results
|